P/2019 A2 ( ATLAS )

Japanese version
Home page
Updated on February 8, 2019

---------------------------------------------------------------------

* Profile

Discovery Date January 4, 2019
Magnitude 18.7 mag
Discoverer Asteroid Terrestrial-Impact Last Alert System (ATLAS) search program

* Orbital Elements

Epoch 2018 Nov. 18.0 TT = JDT 2458440.5
T 2018 Nov. 21.61435 TT                                 MPCW
q   3.5430729            (2000.0)            P               Q
n   0.07178546     Peri.  324.25556     -0.24983284     -0.95384270
a   5.7338332      Node   139.46236     +0.93727205     -0.28143069
e   0.3820760      Incl.   14.85563     +0.24311448     +0.10478966
P  13.73
From 155 observations 2018 Nov. 3-2019 Jan. 30, mean residual 0".5.

* Magnitudes Graph

        m1 = 10.5 + 5 log d + 10.0 log r

---------------------------------------------------------------------

The orbital elements are published on M.P.E.C. 2019-C13.
The magnitudes graphs are made with Comet for Windows.

---------------------------------------------------------------------

Copyright(C) Seiichi Yoshida (comet@aerith.net). All rights reserved.